{"data":{"norad_id":49749,"epoch":"2026-05-24T10:38:56.918976Z","epoch_age_seconds":122345,"freshness":"FRESH","line1":"1 49749U 21115AB  26144.44371434  .00000225  00000+0  32209-4 0  9998","line2":"2 49749  53.2130 169.2907 0001310  88.0818 272.0324 15.08838529246967","mean_motion":15.08838529,"eccentricity":0.000131,"inclination_deg":53.213,"raan_deg":169.2907,"arg_perigee_deg":88.0818,"mean_anomaly_deg":272.0324,"bstar":3.2209e-5,"rev_number":24696,"period_min":95.437647721945,"perigee_km":538.84164230631,"apogee_km":540.65412814624,"semimajor_km":6917.8848852263,"source":"CELESTRAK","updated_at":"2026-05-25T13:38:16.836608Z"}}